QPF
0.00 0.00 0.00 0.00 0.01 0.03 0.02 0.00 0.01 0.04 0.02 0.00 0.00 0.00 0.00 0.00 0.00 0.00 0.00 0.00 0.00 0.00 0.02 0.00 0.00 0.00 0.00 0.00 0.00 0.00 0.00 0.00 0.00 0.00 0.00 0.00 0.01 0.00 0.00 0.00 0.00 0.00 0.00
0.00 0.00 0.00 0.00 0.01 0.02 0.02 0.00 0.00 0.00 0.02 0.02 0.01 0.00 0.00 0.00 0.00 0.00 0.00 0.00 0.00 0.00 0.03 0.03 0.00 0.00 0.00 0.00 0.00 0.00 0.00 0.00 0.00 0.00 0.00 0.00 0.01 0.01 0.00 0.00 0.00 0.00 0.00
0.00 0.00 0.00 0.00 0.01 0.01 0.01 0.01 0.00 0.00 0.00 0.01 0.03 0.02 0.00 0.00 0.00 0.00 0.01 0.01 0.00 0.00 0.01 0.03 0.00 0.00 0.00 0.00 0.00 0.00 0.00 0.00 0.00 0.00 0.00 0.00 0.01 0.02 0.00 0.00 0.00 0.00 0.00
0.00 0.00 0.00 0.00 0.00 0.00 0.01 0.00 0.00 0.00 0.00 0.00 0.00 0.02 0.01 0.00 0.00 0.01 0.00 0.00 0.00 0.02 0.02 0.00 0.00 0.00 0.00 0.00 0.00 0.00 0.00 0.00 0.00 0.00 0.00 0.00 0.00 0.01 0.00 0.00 0.00 0.00 0.00
0.00 0.00 0.00 0.00 0.00 0.00 0.00 0.00 0.00 0.00 0.00 0.00 0.00 0.00 0.01 0.00 0.01 0.00 0.01 0.00 0.00 0.01 0.04 0.02 0.00 0.00 0.00 0.00 0.00 0.00 0.00 0.00 0.00 0.00 0.00 0.00 0.00 0.00 0.00 0.00 0.00 0.00 0.01
0.00 0.00 0.00 0.00 0.00 0.00 0.00 0.00 0.00 0.00 0.00 0.00 0.00 0.00 0.00 0.01 0.01 0.00 0.00 0.00 0.00 0.00 0.02 0.04 0.00 0.00 0.00 0.00 0.00 0.00 0.00 0.00 0.00 0.00 0.00 0.00 0.00 0.01 0.00 0.00 0.00 0.01 0.01
0.00 0.00 0.00 0.00 0.00 0.00 0.00 0.00 0.00 0.00 0.00 0.00 0.00 0.00 0.00 0.00 0.00 0.00 0.00 0.00 0.00 0.00 0.02 0.04 0.01 0.00 0.00 0.00 0.00 0.00 0.00 0.00 0.00 0.00 0.00 0.00 0.00 0.00 0.00 0.00 0.00 0.01 0.01
0.00 0.00 0.00 0.00 0.00 0.00 0.00 0.00 0.00 0.01 0.00 0.00 0.00 0.00 0.00 0.00 0.00 0.00 0.00 0.00 0.00 0.00 0.00 0.03 0.04 0.01 0.01 0.01 0.00 0.00 0.00 0.00 0.00 0.00 0.00 0.00 0.00 0.00 0.00 0.00 0.00 0.00 0.00
0.00 0.00 0.00 0.00 0.00 0.00 0.00 0.00 0.00 0.02 0.01 0.00 0.00 0.00 0.00 0.00 0.00 0.00 0.00 0.00 0.00 0.00 0.00 0.00 0.04 0.05 0.03 0.03 0.02 0.00 0.00 0.00 0.00 0.00 0.00 0.00 0.00 0.00 0.00 0.00 0.00 0.00 0.00
0.00 0.00 0.00 0.00 0.00 0.00 0.00 0.00 0.00 0.01 0.00 0.00 0.00 0.00 0.00 0.00 0.00 0.00 0.00 0.00 0.00 0.00 0.00 0.00 0.00 0.02 0.02 0.02 0.03 0.01 0.00 0.00 0.00 0.00 0.00 0.00 0.00 0.00 0.00 0.00 0.00 0.00 0.00
0.00 0.00 0.00 0.00 0.00 0.00 0.00 0.00 0.00 0.00 0.00 0.00 0.00 0.00 0.00 0.00 0.00 0.00 0.00 0.00 0.00 0.00 0.00 0.00 0.00 0.00 0.00 0.01 0.01 0.01 0.00 0.00 0.00 0.00 0.00 0.00 0.00 0.00 0.00 0.00 0.00 0.00 0.00
0.00 0.00 0.00 0.00 0.00 0.00 0.00 0.00 0.00 0.00 0.00 0.00 0.00 0.00 0.00 0.00 0.00 0.00 0.00 0.00 0.00 0.00 0.00 0.00 0.00 0.00 0.00 0.00 0.00 0.00 0.00 0.00 0.00 0.00 0.00 0.00 0.00 0.00 0.00 0.00 0.00 0.00 0.00
0.00 0.00 0.00 0.00 0.00 0.00 0.00 0.00 0.00 0.00 0.00 0.00 0.00 0.00 0.00 0.00 0.00 0.00 0.00 0.00 0.00 0.00 0.00 0.00 0.00 0.00 0.00 0.00 0.00 0.00 0.00 0.00 0.00 0.00 0.00 0.00 0.00 0.00 0.00 0.00 0.00 0.00 0.00
0.00 0.00 0.00 0.00 0.00 0.00 0.00 0.00 0.00 0.00 0.00 0.00 0.00 0.00 0.00 0.00 0.00 0.00 0.00 0.00 0.00 0.00 0.00 0.00 0.00 0.00 0.00 0.00 0.00 0.00 0.00 0.00 0.00 0.00 0.00 0.00 0.00 0.00 0.00 0.00 0.00 0.00 0.00
0.00 0.00 0.00 0.00 0.00 0.00 0.00 0.00 0.00 0.00 0.00 0.00 0.00 0.00 0.00 0.00 0.00 0.00 0.00 0.00 0.00 0.00 0.00 0.00 0.00 0.00 0.00 0.00 0.00 0.00 0.00 0.00 0.00 0.00 0.00 0.00 0.00 0.00 0.00 0.00 0.00 0.00 0.00
0.00 0.00 0.00 0.00 0.00 0.00 0.00 0.00 0.00 0.00 0.00 0.00 0.00 0.00 0.00 0.00 0.00 0.00 0.00 0.00 0.00 0.00 0.00 0.00 0.00 0.00 0.00 0.00 0.00 0.00 0.00 0.00 0.00 0.00 0.00 0.00 0.00 0.00 0.00 0.02 0.01 0.01 0.02
0.00 0.00 0.00 0.00 0.00 0.00 0.00 0.00 0.00 0.00 0.00 0.00 0.00 0.00 0.00 0.00 0.00 0.00 0.00 0.00 0.00 0.00 0.00 0.00 0.00 0.00 0.00 0.00 0.00 0.00 0.00 0.00 0.00 0.00 0.00 0.00 0.00 0.00 0.00 0.01 0.01 0.04 0.03
0.00 0.00 0.00 0.00 0.00 0.00 0.00 0.00 0.00 0.00 0.00 0.00 0.00 0.00 0.00 0.00 0.00 0.00 0.00 0.00 0.00 0.00 0.00 0.00 0.00 0.00 0.00 0.00 0.00 0.00 0.00 0.00 0.00 0.00 0.00 0.00 0.00 0.00 0.00 0.00 0.01 0.04 0.06
0.00 0.00 0.00 0.00 0.00 0.00 0.00 0.00 0.00 0.00 0.00 0.00 0.00 0.00 0.00 0.00 0.00 0.00 0.00 0.00 0.00 0.00 0.00 0.00 0.00 0.00 0.00 0.00 0.00 0.00 0.00 0.00 0.00 0.00 0.00 0.00 0.00 0.00 0.00 0.00 0.00 0.00 0.01
0.00 0.00 0.00 0.00 0.00 0.00 0.00 0.00 0.00 0.00 0.00 0.00 0.00 0.00 0.00 0.00 0.00 0.00 0.00 0.00 0.00 0.00 0.00 0.00 0.00 0.00 0.00 0.00 0.00 0.00 0.00 0.00 0.00 0.00 0.00 0.00 0.00 0.00 0.00 0.00 0.00 0.00 0.00
0.00 0.00 0.00 0.00 0.00 0.00 0.00 0.00 0.00 0.00 0.00 0.00 0.00 0.00 0.00 0.00 0.00 0.00 0.00 0.00 0.00 0.00 0.00 0.00 0.00 0.00 0.00 0.00 0.00 0.00 0.00 0.00 0.00 0.00 0.00 0.00 0.00 0.00 0.00 0.00 0.00 0.00 0.00
0.00 0.00 0.00 0.00 0.00 0.00 0.00 0.00 0.00 0.00 0.00 0.00 0.00 0.00 0.00 0.00 0.00 0.00 0.00 0.00 0.00 0.00 0.00 0.00 0.00 0.00 0.00 0.00 0.00 0.00 0.00 0.00 0.00 0.00 0.00 0.00 0.00 0.00 0.00 0.00 0.00 0.00 0.00
0.00 0.00 0.00 0.00 0.00 0.00 0.00 0.00 0.00 0.00 0.00 0.00 0.00 0.00 0.00 0.00 0.00 0.00 0.00 0.00 0.00 0.00 0.00 0.00 0.00 0.00 0.00 0.00 0.00 0.00 0.00 0.00 0.00 0.00 0.00 0.00 0.00 0.00 0.00 0.00 0.00 0.00 0.00
0.00 0.00 0.00 0.00 0.00 0.00 0.00 0.00 0.00 0.00 0.00 0.00 0.00 0.00 0.00 0.00 0.00 0.00 0.00 0.00 0.00 0.00 0.00 0.00 0.00 0.00 0.00 0.00 0.00 0.00 0.00 0.00 0.00 0.00 0.00 0.00 0.00 0.00 0.00 0.00 0.00 0.00 0.00
0.00 0.00 0.00 0.00 0.00 0.00 0.00 0.00 0.00 0.00 0.00 0.00 0.00 0.00 0.00 0.00 0.00 0.00 0.00 0.00 0.00 0.00 0.00 0.00 0.00 0.00 0.00 0.00 0.00 0.00 0.00 0.00 0.00 0.00 0.00 0.00 0.00 0.00 0.00 0.00 0.00 0.00 0.00
0.00 0.00 0.00 0.00 0.00 0.00 0.00 0.00 0.00 0.00 0.00 0.00 0.00 0.00 0.00 0.00 0.00 0.00 0.00 0.00 0.00 0.00 0.00 0.00 0.00 0.00 0.00 0.00 0.00 0.00 0.00 0.00 0.00 0.00 0.00 0.00 0.00 0.00 0.00 0.00 0.00 0.00 0.00
MSLP
1017.14 1017.00 1016.45 1015.79 1015.37 1015.02 1014.58 1014.53 1014.39 1014.32 1014.38 1014.40 1014.55 1014.74 1015.10 1015.28 1015.30 1015.32 1015.34 1015.23 1015.21 1015.14 1015.21 1015.36 1015.46 1015.72 1016.03 1016.21 1016.26 1016.25 1016.21 1016.20 1016.08 1016.23 1016.40 1016.43 1016.01 1015.74 1015.63 1015.61 1015.55 1015.48 1015.45
1017.11 1016.94 1016.64 1016.04 1015.60 1015.37 1015.02 1014.83 1014.90 1014.80 1014.71 1014.74 1014.79 1014.88 1015.00 1015.29 1015.50 1015.49 1015.54 1015.56 1015.49 1015.48 1015.34 1015.59 1015.72 1015.93 1016.14 1016.42 1016.54 1016.64 1016.69 1016.61 1016.66 1016.53 1016.59 1016.63 1016.64 1016.30 1016.08 1015.89 1015.85 1015.69 1015.66
1017.31 1016.99 1016.82 1016.19 1015.85 1015.70 1015.50 1015.37 1015.33 1015.28 1015.25 1015.30 1015.09 1015.07 1015.21 1015.38 1015.51 1015.66 1015.70 1015.75 1015.76 1015.69 1015.59 1015.65 1015.90 1016.08 1016.40 1016.61 1016.82 1016.75 1016.75 1016.92 1016.86 1016.82 1016.74 1016.90 1016.86 1016.67 1016.64 1016.34 1016.08 1016.02 1015.96
1017.30 1017.07 1016.71 1016.41 1016.19 1016.05 1015.89 1015.79 1015.73 1015.69 1015.84 1015.81 1015.76 1015.53 1015.55 1015.59 1015.68 1015.72 1015.93 1015.96 1016.04 1015.92 1015.82 1015.87 1016.09 1016.41 1016.48 1016.71 1016.85 1017.11 1017.06 1016.93 1017.22 1017.17 1017.13 1016.92 1016.82 1016.92 1016.99 1016.78 1016.45 1016.35 1016.29
1017.59 1017.31 1016.70 1016.57 1016.62 1016.44 1016.29 1016.23 1016.16 1016.01 1016.07 1016.36 1016.37 1016.21 1015.97 1015.84 1015.82 1015.96 1016.14 1016.31 1016.23 1016.24 1016.18 1016.22 1016.24 1016.39 1016.65 1016.68 1016.99 1017.04 1017.27 1017.30 1017.18 1017.46 1017.51 1017.33 1017.05 1016.98 1017.14 1017.19 1017.00 1016.65 1016.58
1018.06 1017.65 1017.01 1016.83 1016.96 1016.95 1016.73 1016.71 1016.77 1016.76 1016.82 1016.99 1017.06 1016.82 1016.66 1016.46 1016.35 1016.32 1016.33 1016.59 1016.62 1016.54 1016.49 1016.44 1016.59 1016.76 1016.89 1017.08 1017.02 1017.32 1017.34 1017.52 1017.58 1017.60 1017.91 1017.72 1017.40 1017.21 1017.43 1017.44 1017.36 1017.16 1016.87
1018.45 1018.22 1017.82 1017.46 1017.36 1017.50 1017.35 1017.39 1017.40 1017.52 1017.42 1017.60 1017.71 1017.42 1017.27 1017.20 1017.03 1016.92 1016.72 1016.63 1016.83 1016.83 1016.70 1016.71 1016.79 1017.06 1017.16 1017.27 1017.40 1017.49 1017.67 1017.73 1017.94 1017.95 1017.78 1017.98 1017.84 1017.37 1017.49 1017.58 1017.72 1017.62 1017.35
1019.10 1018.88 1018.98 1018.65 1018.20 1018.18 1018.23 1018.08 1018.03 1018.05 1017.97 1018.23 1018.37 1018.33 1017.89 1017.93 1017.75 1017.57 1017.45 1017.07 1017.12 1017.02 1016.99 1016.91 1016.90 1017.14 1017.33 1017.51 1017.74 1017.88 1017.90 1017.90 1018.07 1018.21 1018.10 1018.09 1018.10 1018.03 1017.77 1017.95 1017.85 1017.89 1017.80
1019.62 1019.58 1019.65 1019.77 1019.65 1019.49 1019.12 1018.99 1018.86 1018.62 1018.76 1019.00 1019.10 1019.00 1018.83 1018.48 1018.54 1018.34 1018.00 1017.70 1017.58 1017.34 1017.28 1017.19 1017.09 1017.19 1017.42 1017.60 1017.92 1018.22 1018.49 1018.52 1018.43 1018.50 1018.49 1018.30 1018.08 1018.16 1018.21 1018.12 1018.09 1018.16 1018.17
1020.11 1020.32 1020.23 1020.10 1020.23 1020.38 1020.30 1019.75 1019.57 1019.58 1019.74 1019.55 1019.72 1019.66 1019.48 1019.26 1019.02 1018.86 1018.79 1018.25 1018.30 1017.91 1017.69 1017.50 1017.51 1017.30 1017.32 1017.75 1018.04 1018.31 1018.67 1019.04 1018.98 1018.74 1018.58 1018.50 1018.26 1018.26 1018.29 1018.32 1018.43 1018.47 1018.54
1020.68 1020.62 1020.74 1020.55 1020.50 1020.70 1020.80 1020.68 1020.63 1020.27 1020.15 1020.10 1020.17 1019.98 1020.11 1019.82 1019.45 1019.37 1019.19 1019.07 1018.82 1018.54 1018.28 1018.04 1017.72 1017.80 1017.51 1017.60 1017.88 1018.44 1018.86 1019.18 1019.34 1019.26 1019.10 1018.91 1018.46 1018.34 1018.58 1018.58 1018.38 1018.41 1018.94
1020.95 1021.14 1021.19 1021.29 1021.12 1021.21 1021.32 1021.15 1021.09 1021.06 1020.86 1020.68 1020.58 1020.42 1020.18 1020.30 1019.99 1020.07 1019.54 1019.48 1019.32 1019.18 1018.84 1018.50 1018.21 1018.17 1018.01 1018.15 1018.27 1018.20 1018.63 1019.08 1019.29 1019.45 1019.28 1019.16 1018.99 1018.75 1018.76 1018.86 1019.00 1018.59 1018.74
1021.09 1021.39 1021.60 1021.73 1021.56 1021.65 1021.77 1021.82 1021.56 1021.38 1021.33 1021.34 1021.17 1020.74 1020.70 1020.39 1020.59 1020.46 1020.21 1019.93 1019.79 1019.62 1019.48 1019.38 1019.09 1018.71 1018.79 1018.50 1018.44 1018.58 1018.72 1018.80 1019.19 1019.14 1019.29 1019.10 1019.18 1019.05 1019.03 1019.14 1019.41 1019.17 1018.82
1021.34 1021.63 1021.78 1022.04 1022.03 1022.08 1022.16 1022.23 1022.08 1021.71 1021.92 1021.95 1021.71 1021.54 1021.11 1021.24 1020.99 1021.13 1020.90 1020.84 1020.35 1020.42 1020.18 1019.74 1019.93 1019.66 1019.17 1018.83 1018.74 1018.65 1018.66 1019.00 1018.97 1018.77 1018.90 1019.09 1019.14 1019.01 1019.23 1019.22 1019.56 1019.68 1019.34
1021.46 1021.75 1022.05 1022.35 1022.37 1022.26 1022.54 1022.55 1022.65 1022.54 1022.11 1022.43 1022.23 1022.03 1022.04 1022.00 1021.63 1021.48 1021.89 1021.58 1021.19 1020.95 1020.82 1020.43 1020.17 1019.95 1019.90 1019.59 1019.11 1018.95 1018.86 1018.76 1019.01 1019.04 1018.72 1018.51 1018.76 1018.87 1018.92 1018.96 1019.56 1019.75 1019.71
1021.65 1021.91 1022.25 1022.66 1022.58 1022.71 1022.76 1022.98 1023.01 1022.87 1022.76 1022.49 1022.56 1022.72 1022.57 1022.80 1022.54 1022.23 1022.15 1022.23 1022.04 1021.87 1021.34 1020.99 1020.80 1020.33 1020.23 1020.15 1019.58 1019.27 1019.15 1019.11 1018.75 1018.86 1018.69 1018.64 1018.55 1018.83 1018.89 1018.62 1018.85 1019.40 1019.91
1021.87 1022.21 1022.30 1022.60 1022.76 1023.03 1023.20 1023.26 1023.22 1023.14 1023.22 1023.08 1023.14 1023.07 1023.08 1023.19 1023.01 1022.86 1022.72 1022.60 1022.64 1022.29 1021.91 1021.32 1020.95 1020.71 1020.37 1020.36 1020.18 1019.73 1019.34 1018.97 1018.90 1018.87 1018.69 1018.56 1018.27 1018.71 1018.89 1018.98 1018.65 1018.92 1019.40
1021.88 1022.29 1022.38 1022.63 1023.16 1023.40 1023.46 1023.55 1023.68 1023.59 1023.42 1023.64 1023.52 1023.50 1023.47 1023.50 1023.42 1023.32 1023.23 1023.10 1023.01 1022.70 1022.43 1022.05 1021.72 1021.47 1020.94 1020.63 1020.41 1020.04 1019.86 1019.36 1018.95 1018.63 1018.54 1018.57 1018.39 1018.39 1018.42 1018.62 1018.80 1018.84 1019.01
1021.94 1022.49 1023.08 1023.28 1023.37 1023.59 1023.64 1023.72 1024.05 1023.76 1023.88 1024.14 1023.93 1023.84 1024.02 1023.78 1023.64 1023.63 1023.53 1023.64 1023.64 1023.28 1022.94 1022.74 1022.40 1022.14 1021.76 1021.29 1020.62 1020.02 1019.68 1019.51 1018.96 1018.40 1018.31 1018.32 1018.32 1018.07 1018.22 1018.25 1018.54 1018.79 1019.00
1021.85 1022.59 1023.04 1023.29 1023.45 1023.34 1023.90 1024.21 1024.36 1024.20 1024.56 1024.63 1024.50 1024.40 1024.26 1024.15 1024.03 1024.14 1024.14 1024.16 1023.94 1023.82 1023.60 1023.20 1022.76 1022.58 1022.18 1021.91 1021.08 1020.18 1019.52 1018.87 1018.60 1018.35 1018.02 1017.86 1017.91 1017.77 1018.00 1018.11 1018.21 1018.54 1018.72
1022.18 1022.56 1023.01 1023.17 1023.55 1023.88 1024.08 1024.08 1024.31 1024.61 1024.86 1024.99 1024.90 1024.65 1024.60 1024.80 1024.68 1024.29 1024.32 1024.45 1024.29 1024.15 1024.14 1023.78 1023.26 1022.88 1022.63 1022.29 1021.65 1020.37 1019.22 1018.53 1018.14 1017.82 1017.50 1017.59 1017.35 1017.29 1017.54 1017.75 1017.92 1018.23 1018.35
1022.21 1022.65 1023.18 1023.41 1023.74 1024.00 1024.15 1024.27 1024.58 1024.93 1024.93 1024.99 1025.23 1025.18 1025.14 1024.98 1024.71 1024.50 1024.74 1024.64 1024.50 1024.48 1024.36 1024.20 1023.81 1023.63 1023.38 1023.03 1022.73 1022.17 1020.82 1018.87 1018.17 1017.72 1017.52 1017.39 1017.26 1017.11 1017.11 1017.05 1017.62 1017.79 1018.08
1022.26 1022.52 1022.95 1023.41 1023.79 1024.21 1024.29 1024.41 1024.67 1024.78 1024.92 1025.16 1025.42 1025.42 1025.28 1025.13 1024.96 1024.79 1024.69 1024.64 1024.69 1024.70 1024.79 1024.61 1024.32 1024.05 1023.97 1023.55 1023.41 1023.22 1022.30 1021.44 1020.52 1018.50 1017.88 1017.56 1017.27 1017.10 1017.05 1016.96 1017.23 1017.29 1017.59
1021.83 1022.43 1023.01 1023.64 1023.99 1024.24 1024.34 1024.45 1024.58 1024.91 1025.31 1025.68 1025.75 1025.65 1025.50 1025.34 1025.11 1024.89 1024.95 1025.01 1024.93 1024.91 1024.85 1024.66 1024.34 1024.60 1024.38 1024.37 1023.83 1023.44 1023.20 1023.01 1022.38 1020.79 1019.04 1018.19 1018.04 1017.42 1017.25 1016.96 1017.01 1017.19 1017.21
1022.14 1022.78 1023.22 1023.64 1024.00 1024.32 1024.42 1024.50 1024.80 1025.17 1025.47 1025.59 1025.63 1025.62 1025.52 1025.29 1025.10 1025.04 1025.09 1025.11 1025.16 1025.11 1025.07 1025.07 1024.95 1025.02 1024.77 1024.70 1024.61 1024.28 1023.91 1023.36 1023.00 1022.68 1021.42 1019.86 1018.62 1018.13 1018.01 1017.68 1017.23 1016.93 1016.98
1022.56 1023.20 1023.43 1023.78 1024.18 1024.40 1024.51 1024.72 1024.91 1025.16 1025.31 1025.42 1025.59 1025.60 1025.44 1025.32 1025.13 1025.08 1025.07 1025.13 1025.15 1025.09 1025.01 1025.00 1025.05 1025.06 1024.91 1024.74 1024.65 1024.56 1024.51 1024.06 1023.50 1023.17 1022.74 1021.69 1020.72 1018.91 1018.28 1017.80 1017.37 1016.54 1016.61
Thickness
5678 5680 5685 5691 5696 5700 5705 5708 5712 5713 5715 5716 5716 5715 5714 5714 5716 5717 5718 5720 5722 5723 5723 5723 5723 5721 5718 5718 5718 5719 5720 5720 5720 5717 5714 5712 5714 5716 5715 5713 5711 5708 5704
5674 5677 5681 5686 5692 5696 5700 5704 5706 5709 5711 5712 5713 5713 5713 5712 5712 5713 5715 5716 5718 5720 5723 5721 5722 5720 5718 5716 5715 5715 5715 5716 5715 5716 5713 5711 5709 5711 5712 5712 5710 5709 5706
5669 5674 5677 5682 5687 5690 5694 5697 5701 5704 5706 5706 5709 5710 5711 5709 5710 5710 5712 5712 5715 5717 5721 5721 5719 5718 5716 5714 5713 5713 5714 5712 5714 5714 5714 5712 5709 5707 5708 5709 5710 5708 5706
5664 5669 5674 5677 5681 5684 5687 5690 5694 5698 5699 5701 5702 5705 5706 5707 5707 5709 5708 5711 5711 5714 5717 5719 5718 5715 5714 5712 5711 5711 5710 5712 5709 5711 5711 5713 5711 5706 5705 5706 5708 5707 5706
5659 5663 5669 5671 5673 5677 5681 5684 5687 5692 5694 5693 5695 5698 5701 5704 5705 5705 5704 5705 5709 5710 5713 5714 5716 5715 5712 5711 5708 5710 5709 5708 5710 5707 5707 5708 5710 5709 5705 5704 5704 5707 5706
5649 5655 5661 5665 5666 5669 5674 5677 5679 5682 5684 5685 5686 5692 5694 5697 5700 5701 5702 5700 5702 5705 5707 5710 5711 5711 5710 5707 5707 5704 5708 5707 5708 5708 5703 5703 5705 5705 5702 5701 5703 5703 5705
5640 5645 5651 5655 5660 5661 5665 5667 5670 5672 5676 5677 5678 5684 5687 5688 5692 5695 5698 5700 5698 5700 5703 5704 5707 5706 5706 5705 5704 5703 5703 5706 5705 5706 5707 5703 5703 5705 5703 5703 5700 5700 5702
5629 5635 5637 5641 5648 5652 5653 5658 5661 5664 5667 5668 5670 5674 5680 5680 5682 5687 5689 5695 5694 5697 5698 5700 5702 5703 5702 5701 5699 5699 5700 5703 5706 5704 5705 5704 5701 5701 5703 5698 5699 5699 5699
5620 5625 5628 5629 5633 5638 5642 5646 5650 5654 5656 5657 5659 5664 5670 5674 5674 5678 5683 5687 5688 5692 5694 5696 5697 5699 5699 5698 5696 5694 5692 5694 5700 5701 5700 5702 5702 5701 5699 5699 5697 5696 5696
5611 5612 5617 5621 5623 5626 5630 5635 5640 5644 5645 5651 5650 5654 5659 5665 5670 5671 5674 5681 5680 5685 5688 5692 5692 5697 5696 5693 5692 5692 5690 5686 5690 5697 5699 5700 5699 5700 5700 5699 5695 5693 5692
5599 5603 5607 5612 5615 5616 5620 5624 5628 5633 5638 5643 5645 5648 5650 5656 5662 5665 5667 5669 5673 5677 5680 5684 5689 5690 5693 5693 5692 5688 5686 5685 5684 5688 5691 5693 5698 5699 5696 5697 5699 5697 5687
5590 5592 5596 5600 5605 5607 5608 5615 5619 5622 5627 5632 5637 5641 5646 5647 5652 5652 5661 5662 5666 5668 5672 5678 5682 5684 5686 5687 5686 5687 5685 5683 5682 5682 5686 5688 5690 5693 5694 5695 5693 5697 5693
5582 5583 5585 5588 5594 5597 5599 5602 5609 5614 5617 5620 5625 5632 5635 5642 5641 5644 5650 5655 5657 5660 5664 5666 5672 5678 5677 5680 5682 5681 5680 5681 5679 5682 5681 5685 5685 5687 5688 5689 5687 5690 5695
5572 5574 5577 5578 5583 5586 5590 5592 5597 5603 5605 5608 5614 5618 5626 5627 5633 5634 5638 5641 5648 5648 5651 5658 5658 5662 5669 5673 5675 5677 5678 5675 5677 5681 5682 5681 5681 5684 5683 5685 5683 5683 5686
5565 5567 5568 5570 5573 5578 5580 5583 5585 5590 5597 5597 5602 5607 5611 5615 5621 5626 5624 5630 5636 5639 5642 5646 5651 5654 5656 5660 5667 5671 5672 5674 5672 5673 5678 5682 5681 5682 5684 5685 5679 5679 5681
5554 5557 5559 5560 5564 5567 5571 5573 5575 5580 5585 5591 5593 5594 5599 5601 5606 5613 5617 5619 5624 5628 5634 5637 5640 5646 5649 5651 5658 5663 5665 5665 5670 5670 5673 5676 5678 5678 5679 5684 5683 5678 5675
5543 5545 5549 5551 5556 5558 5560 5563 5567 5571 5574 5580 5583 5586 5589 5591 5596 5601 5606 5610 5613 5618 5624 5631 5635 5639 5643 5644 5648 5654 5660 5664 5666 5665 5668 5672 5677 5673 5674 5675 5681 5680 5676
5534 5535 5540 5542 5544 5547 5550 5554 5556 5561 5567 5568 5572 5575 5578 5581 5586 5591 5595 5600 5604 5610 5614 5619 5624 5628 5635 5639 5643 5647 5650 5656 5661 5666 5666 5666 5669 5671 5673 5674 5674 5677 5676
5523 5524 5525 5528 5533 5536 5540 5544 5546 5552 5556 5557 5561 5565 5567 5572 5577 5581 5586 5588 5590 5596 5603 5607 5612 5617 5623 5628 5637 5642 5646 5649 5656 5662 5664 5664 5665 5669 5669 5671 5671 5671 5672
5512 5512 5514 5517 5521 5528 5529 5530 5534 5539 5541 5544 5548 5552 5557 5562 5566 5568 5572 5575 5580 5584 5589 5595 5601 5605 5611 5616 5626 5635 5641 5648 5651 5656 5660 5661 5663 5667 5666 5668 5668 5668 5669
5497 5501 5502 5506 5508 5511 5515 5519 5523 5525 5527 5530 5535 5540 5545 5547 5551 5558 5562 5564 5569 5573 5576 5582 5588 5594 5598 5603 5611 5625 5635 5643 5649 5654 5657 5656 5662 5664 5665 5666 5666 5664 5666
5484 5486 5488 5491 5494 5498 5501 5505 5508 5511 5514 5519 5522 5526 5530 5535 5541 5545 5548 5552 5558 5561 5565 5569 5574 5578 5583 5588 5592 5599 5615 5633 5641 5646 5650 5653 5655 5658 5661 5664 5660 5662 5660
5468 5470 5475 5477 5479 5482 5486 5490 5493 5497 5501 5505 5508 5512 5517 5523 5528 5533 5538 5541 5545 5548 5551 5555 5560 5565 5568 5573 5576 5580 5594 5609 5605 5629 5637 5642 5648 5651 5652 5656 5655 5658 5657
5458 5460 5461 5461 5464 5467 5471 5475 5480 5483 5486 5487 5491 5496 5502 5508 5514 5520 5523 5526 5531 5535 5539 5543 5548 5549 5553 5555 5562 5568 5570 5574 5580 5593 5616 5627 5630 5639 5643 5647 5649 5650 5652
5441 5444 5447 5448 5451 5453 5457 5461 5464 5466 5469 5474 5478 5484 5489 5495 5501 5506 5509 5513 5516 5520 5524 5527 5531 5533 5538 5541 5544 5549 5554 5560 5565 5569 5580 5597 5614 5622 5626 5631 5638 5642 5645
5422 5427 5431 5433 5435 5438 5443 5447 5450 5453 5457 5461 5465 5469 5475 5481 5486 5491 5495 5499 5502 5507 5511 5514 5517 5519 5523 5527 5530 5534 5537 5542 5550 5554 5559 5570 5578 5601 5611 5619 5627 5635 5637